Location: Krakow
(50.0830°N, 19.9170°E)
Time: 06:15:04
(UTC+01:00)

SR - Pass Details

Date: 12 February 2023
Orbit: 582 x 867 km, 66.7° (Epoch: 20 March)

Event Time Altitude Azimuth Distance (km) Brightness Sun altitude
Rises 20:04:28 0° 323° (NW) 2,861 ? -31.0°
Reaches altitude 10° 20:06:45 10° 326° (NW) 1,933 ? -31.4°
Enters shadow 20:08:16 21° 328° (NNW) 1,340 ? -31.6°
Maximum altitude 20:11:03 76° 51° (NE) 608 - -32.0°
Drops below altitude 10° 20:15:18 10° 138° (SE) 1,904 - -32.7°
Sets 20:17:32 0° 140° (SE) 2,812 - -33.0°
